East Milton, MA

7:04 PM EDT on September 19, 2019 (GMT -0400)
East Milton

Weather History for KMQE - August, 2019

Change the Weather History Date:

Thursday, August 22, 2019

  Actual Average (WUND) Record (WUND)
Temperature  
Mean Temperature 78 °F -  
Max Temperature 88 °F - - (-1)
Min Temperature 68 °F - - (-1)
Cooling Degree Days 13    
Growing Degree Days 28 (Base 50)    
Moisture  
Dew Point 69 °F    
Average Humidity 79    
Maximum Humidity 100    
Minimum Humidity 51    
Precipitation  
Precipitation 0.00 in - - ()
Sea Level Pressure  
Sea Level Pressure 29.87 in    
Wind  
Wind Speed 9 mph ()    
Max Wind Speed 14 mph    
Max Gust Speed 23 mph    
Averages and records for this station are not official NWS values.
T = Trace of Precipitation, MM = Missing Value Source: Averaged Metar Reports

Daily Weather History Graph

Daily Weather History Graph

Search for Another Location

Airport or City:

Astronomy

Aug. 22, 2019 Rise Set
Actual Time 5:59 AM EDT 7:34 PM EDT
Civil Twilight 5:29 AM EDT 8:04 PM EDT
Nautical Twilight 4:53 AM EDT 8:40 PM EDT
Astronomical Twilight 4:15 AM EDT 9:18 PM EDT
Moon 11:15 PM EDT (8/22) 12:38 PM EDT (8/22)
Length of Visible Light 14h 35m
Length of Day
13h 35m
Waning Gibbous, 60% of the Moon is Illuminated
Aug 22
Waning Gibbous
Aug 23
Last Quarter
Aug 30
New
Sep 5
First Quarter
Sep 14
Full

Hourly Weather History & Observations

Time (EDT) Temp. Heat Index Dew Point Humidity Pressure Visibility Wind Dir Wind Speed Gust Speed Precip Events Conditions
12:56 AM 68.0 °F - 68.0 °F 100% 29.88 in - SW 11.5 mph - N/A   Unknown
1:56 AM 68.0 °F - 66.9 °F 96% 29.87 in - SW 12.7 mph - N/A   Unknown
2:56 AM 69.1 °F - 69.1 °F 100% 29.86 in - SW 13.8 mph - N/A   Unknown
3:56 AM 69.1 °F - 69.1 °F 100% 29.85 in - SW 10.4 mph - N/A   Unknown
4:56 AM 69.1 °F - 69.1 °F 100% 29.86 in - SSW 6.9 mph - N/A   Unknown
5:56 AM 69.1 °F - 69.1 °F 100% 29.87 in - SW 8.1 mph - N/A   Unknown
6:56 AM 70.0 °F - 70.0 °F 100% 29.87 in - SW 6.9 mph - N/A   Unknown
7:56 AM 71.1 °F - 71.1 °F 100% 29.89 in - South 9.2 mph - N/A   Unknown
8:56 AM 73.0 °F - 73.0 °F 100% 29.88 in - South 8.1 mph - N/A   Unknown
9:56 AM 75.9 °F - 73.9 °F 94% 29.88 in - South 5.8 mph - N/A   Unknown
10:56 AM 78.1 °F - 73.9 °F 87% 29.88 in - SSW 8.1 mph - N/A   Unknown
11:56 AM 82.9 °F 89.4 °F 73.9 °F 74% 29.87 in - SW 9.2 mph - N/A   Unknown
12:56 PM 84.9 °F 92.1 °F 73.9 °F 69% 29.85 in - WSW 10.4 mph - N/A   Unknown
1:56 PM 86.0 °F 92.2 °F 72.0 °F 63% 29.85 in - West 10.4 mph - N/A   Unknown
2:56 PM 87.1 °F 91.3 °F 69.1 °F 55% 29.84 in - West 13.8 mph 23.0 mph N/A   Unknown
3:56 PM 88.0 °F 91.4 °F 68.0 °F 51% 29.84 in - West 12.7 mph - N/A   Unknown
4:56 PM 86.0 °F 88.8 °F 66.9 °F 53% 29.84 in - West 13.8 mph 20.7 mph N/A   Unknown
5:56 PM 82.9 °F 84.6 °F 64.9 °F 54% 29.85 in - West 12.7 mph - N/A   Unknown
6:56 PM 80.1 °F 81.9 °F 64.9 °F 60% 29.86 in - West 6.9 mph - N/A   Unknown
7:56 PM 78.1 °F - 66.9 °F 68% 29.86 in - West 8.1 mph - N/A   Unknown
8:56 PM 77.0 °F - 66.9 °F 71% 29.88 in - WNW 11.5 mph - N/A   Unknown
9:56 PM 75.0 °F - 64.0 °F 69% 29.89 in - West 10.4 mph - N/A   Unknown
10:56 PM 73.9 °F - 64.0 °F 71% 29.90 in - WNW 9.2 mph - N/A   Unknown
11:56 PM 73.0 °F - 62.1 °F 68% 29.90 in - West 9.2 mph - N/A   Unknown